Wind_Speed
2 2 1 1 2 2 2 3 3 3 2 2 1 1 2 2 2 3 6 3 0 1 2 5 5 8 2 4 4 2 4 2 4 6 3 8 3 4 3 9 7 7 5 3 13
2 2 1 2 2 2 3 3 3 3 3 3 2 2 3 3 3 5 7 3 2 3 2 7 6 10 3 3 3 4 4 6 3 2 2 6 4 9 5 5 7 8 8 8 15
3 3 3 2 2 3 3 4 4 4 4 4 3 3 4 4 5 3 6 3 1 1 4 8 7 5 2 2 4 2 3 4 3 2 4 5 3 6 6 4 12 12 11 11 18
4 4 4 4 3 3 3 4 4 5 5 4 3 3 3 3 1 4 5 2 2 1 4 5 5 3 2 2 3 3 1 2 2 3 2 4 2 4 13 10 6 8 11 13 17
6 6 5 5 4 4 4 4 5 6 5 5 3 3 2 3 3 4 4 1 2 1 3 5 7 3 2 1 1 2 2 1 2 2 2 4 6 7 13 15 11 10 12 15 17
8 8 7 7 6 5 5 5 6 6 6 5 4 3 4 2 2 3 2 1 2 2 2 3 3 2 2 2 2 1 2 1 2 2 3 3 3 1 3 11 15 15 14 17 19
10 10 9 8 7 6 6 6 6 6 6 6 5 4 5 5 3 3 1 2 0 3 2 2 2 1 1 1 2 1 1 2 4 2 2 1 5 7 10 5 16 16 15 18 19
12 12 11 10 9 8 7 7 6 7 7 6 5 4 4 6 6 4 3 1 2 1 1 1 2 2 2 2 4 3 4 3 2 4 1 2 7 4 5 12 15 17 19 20 20
15 13 13 11 9 9 8 6 6 7 7 5 5 4 4 5 7 6 4 2 1 0 1 1 1 2 2 4 4 6 1 2 6 7 2 1 7 3 3 13 15 18 20 21 20
16 15 15 11 9 10 8 5 5 7 7 5 6 3 7 5 5 5 5 5 2 2 0 1 2 3 3 4 3 3 1 3 4 2 1 3 12 12 15 17 22 20 20 22 22
17 18 16 12 9 9 6 3 3 4 12 7 4 4 2 7 6 5 5 4 3 0 2 3 4 3 3 3 2 2 2 3 4 1 2 4 8 14 13 13 20 23 21 24 24
17 19 17 13 10 9 7 4 2 2 7 20 9 14 7 7 4 7 6 4 2 2 2 5 2 4 2 2 1 1 1 4 4 1 3 5 10 6 4 4 13 20 23 26 25
16 17 18 15 11 9 9 6 1 3 4 6 23 15 12 12 5 7 8 4 3 2 2 5 2 3 1 1 1 0 1 1 2 6 0 6 7 6 3 3 4 7 9 11 16
17 17 17 16 9 11 8 11 2 3 4 5 8 9 15 9 4 9 10 4 1 7 6 3 0 2 1 1 3 2 2 1 2 4 1 3 2 5 5 8 4 5 5 5 8
15 17 17 17 8 9 7 9 6 1 3 2 5 7 15 12 8 6 9 6 4 4 5 4 3 2 2 2 2 2 2 2 2 2 2 4 3 7 4 5 4 6 6 5 4
14 18 17 19 16 10 10 12 7 5 7 3 6 6 6 4 4 6 4 4 3 3 3 1 0 1 2 2 2 4 3 5 4 2 2 2 3 5 3 4 3 5 6 5 4
15 14 16 20 18 15 13 11 4 4 2 5 5 5 4 4 3 4 5 4 6 4 4 3 2 1 1 2 2 4 4 2 2 2 5 1 2 8 4 5 4 4 6 4 5
17 17 17 23 19 18 16 3 5 5 6 3 4 5 7 5 4 5 5 4 4 4 3 6 4 4 1 2 4 4 5 4 4 4 3 1 5 5 5 4 4 5 5 5 5
17 19 22 24 23 18 14 4 8 7 6 8 5 4 4 4 5 4 7 6 9 10 7 5 3 0 1 1 2 3 3 2 5 2 2 3 7 8 4 4 5 5 4 4 6
16 15 26 20 29 20 3 12 7 6 6 3 8 5 9 7 6 8 8 5 6 16 7 5 3 1 0 1 2 1 3 2 2 3 3 4 5 5 6 8 5 7 7 5 7
14 6 6 25 33 14 8 8 7 10 8 7 7 5 6 8 8 7 7 4 7 6 9 5 3 2 1 6 8 2 1 3 3 3 4 1 6 7 9 9 10 12 6 7 5
12 3 7 34 14 8 10 6 7 11 14 8 5 4 8 9 8 6 11 5 13 18 10 6 5 4 4 1 1 2 4 5 5 4 1 3 6 3 6 10 13 10 4 3 3
10 10 8 37 10 5 8 12 5 6 7 7 8 5 4 8 5 7 7 1 14 10 11 9 2 2 5 2 1 5 5 5 5 3 6 5 6 1 5 7 13 13 7 3 4
11 3 9 24 20 17 15 6 23 11 6 8 5 4 4 4 3 8 6 1 6 5 9 13 4 7 8 5 5 5 6 6 6 4 5 6 6 4 7 9 15 18 17 9 9
18 8 13 7 21 8 12 11 13 14 12 15 5 7 8 5 4 5 2 2 2 4 4 3 7 6 6 3 4 5 6 10 10 6 7 5 10 8 9 10 23 23 22 19 17
18 9 9 2 30 23 11 13 18 18 11 8 6 11 9 8 8 9 8 5 6 4 5 0 2 4 3 3 7 5 8 11 11 4 10 2 15 11 26 20 22 25 24 24 17
39 20 11 11 14 17 23 8 16 15 17 16 12 6 7 11 14 4 15 9 9 11 8 7 6 4 5 1 4 6 15 12 6 7 11 9 19 6 6 11 17 14 15 16 17
Wind_Direction
153 166 210 270 264 254 252 243 228 226 231 234 262 248 220 207 293 348 352 346 176 182 3 26 54 360 345 57 64 91 63 134 182 158 238 169 144 160 175 154 191 208 232 244 190
199 193 200 245 269 270 262 250 236 233 236 230 253 264 224 236 296 314 345 351 193 222 282 356 1 5 38 44 31 73 99 203 189 194 212 187 192 175 169 179 217 225 233 227 198
245 237 227 240 257 270 263 252 242 239 239 232 247 269 249 259 301 320 344 3 193 204 9 1 346 350 50 40 22 92 148 173 188 159 191 185 217 192 174 231 229 229 221 206 197
259 252 249 246 251 259 262 253 245 242 242 236 249 276 260 245 254 337 344 351 169 190 359 8 15 64 55 53 40 83 125 183 183 205 177 183 199 223 219 239 269 243 240 210 202
267 262 257 255 251 255 259 251 244 243 245 242 251 277 227 232 266 317 330 337 182 269 334 17 38 40 87 40 62 95 181 202 207 214 229 228 242 242 253 244 242 227 224 219 212
262 265 263 261 258 251 250 247 244 241 239 238 244 264 222 256 259 321 340 306 267 266 344 354 24 18 84 49 104 70 169 287 238 235 233 242 258 302 267 235 224 230 232 220 222
256 261 265 263 263 256 248 246 243 237 230 229 234 253 237 237 249 295 12 46 337 275 303 353 11 3 63 61 53 88 340 329 239 235 234 223 275 234 257 226 214 221 228 224 230
257 258 261 264 265 257 251 247 240 229 225 225 228 249 249 234 233 247 258 340 41 34 339 24 89 109 76 111 26 39 51 17 248 170 244 89 273 265 247 212 212 218 221 226 230
249 256 260 264 264 263 260 250 232 219 219 219 222 224 237 233 226 231 242 278 236 58 29 13 136 101 103 77 16 12 244 338 324 197 121 163 270 238 244 220 225 222 225 232 236
246 243 255 259 265 262 262 247 213 211 209 211 221 240 235 216 209 217 229 241 254 269 247 104 61 68 46 71 217 215 297 282 257 305 196 251 267 280 286 236 233 236 234 237 241
251 241 245 255 259 264 256 193 172 221 212 209 217 215 251 201 200 216 208 213 231 211 98 31 70 191 225 180 162 145 191 249 267 66 301 251 276 287 316 232 238 242 242 243 247
256 243 239 245 250 254 251 206 187 292 281 229 232 221 232 195 213 215 204 198 174 181 82 22 224 208 196 214 204 215 238 282 298 16 7 341 300 288 304 262 245 253 253 253 254
261 247 234 232 244 247 241 190 127 319 271 246 221 214 202 206 216 210 200 184 173 163 181 160 271 140 139 40 149 209 205 283 255 324 248 328 309 342 305 315 292 283 282 264 248
260 251 229 225 237 240 237 197 199 346 39 261 190 214 203 180 246 201 194 189 175 194 152 220 334 149 122 257 129 309 154 86 359 34 194 20 261 311 326 315 295 321 309 283 242
254 249 225 206 193 197 197 189 207 120 322 192 160 181 176 175 145 175 183 186 183 180 107 255 168 163 191 222 152 227 47 15 42 45 25 339 79 268 342 329 309 321 351 345 275
253 250 214 209 199 170 174 165 152 50 252 190 149 160 131 154 147 139 160 163 131 111 41 242 342 129 178 112 121 144 88 46 49 51 22 274 120 283 228 214 293 311 333 338 328
251 232 216 205 196 179 170 158 62 179 326 199 185 157 140 154 147 152 159 166 157 123 220 358 253 299 165 126 82 82 66 360 5 7 214 349 40 239 248 238 226 280 321 318 310
242 232 223 209 185 178 173 72 195 218 200 126 119 107 172 156 202 158 128 199 228 108 121 166 290 175 80 189 186 174 160 160 222 190 239 317 233 245 215 279 232 279 303 326 328
230 241 238 203 189 183 174 178 207 205 179 144 78 112 221 224 158 140 188 206 201 178 174 147 252 21 93 129 129 171 203 181 106 22 36 253 290 301 205 254 251 262 273 300 319
233 253 248 200 192 191 164 216 211 211 137 123 167 164 180 193 157 173 180 210 207 187 177 207 110 252 227 109 45 180 163 76 17 164 238 286 275 234 214 222 239 248 252 290 320
221 256 242 189 187 184 210 224 217 242 187 163 191 152 194 181 176 191 203 254 198 169 161 142 121 224 102 199 182 142 218 61 118 128 161 250 265 212 204 197 202 222 235 292 331
199 215 220 175 163 194 213 191 215 223 206 221 148 139 176 167 174 212 203 240 183 147 167 185 129 176 191 196 194 217 206 153 122 214 82 142 274 258 218 200 194 202 229 306 340
195 225 217 176 199 208 214 223 262 207 188 194 208 197 178 169 180 204 193 179 175 160 159 180 194 86 355 358 8 211 195 136 109 93 200 138 262 316 246 219 211 212 217 359 319
186 194 179 215 227 202 194 220 215 235 222 183 185 145 133 169 261 192 202 168 195 218 191 152 151 169 189 198 135 189 180 167 142 139 173 226 276 274 233 228 228 225 228 281 304
203 219 185 193 220 212 197 197 199 214 210 196 209 184 166 165 140 173 144 73 358 191 173 136 203 177 229 199 178 196 173 175 196 180 179 228 214 224 230 225 239 242 247 266 287
189 192 186 220 207 206 198 217 207 205 175 220 192 196 188 163 181 189 144 186 193 169 166 299 216 160 273 204 209 246 217 197 215 234 266 293 273 197 245 252 255 253 257 264 250
203 214 191 185 190 200 215 193 214 195 231 230 194 164 191 213 207 210 180 194 184 158 175 156 139 116 252 34 131 290 227 197 188 216 204 206 240 167 197 215 234 241 236 241 230
Height
1572 1572 1573 1572 1572 1572 1572 1572 1572 1572 1572 1571 1571 1570 1570 1569 1569 1568 1567 1567 1566 1565 1565 1564 1563 1562 1561 1561 1561 1561 1573 1581 1575 1577 1571 1570 1571 1572 1573 1573 1574 1573 1573 1574 1575
1572 1572 1572 1572 1572 1572 1572 1572 1572 1571 1571 1571 1571 1570 1570 1570 1569 1568 1568 1566 1566 1566 1565 1564 1563 1562 1562 1562 1562 1562 1575 1574 1569 1569 1570 1570 1570 1571 1573 1573 1572 1572 1573 1573 1573
1573 1572 1572 1571 1571 1572 1571 1571 1571 1571 1571 1571 1570 1570 1570 1570 1570 1568 1567 1566 1566 1566 1566 1564 1563 1563 1563 1563 1564 1565 1572 1569 1569 1569 1568 1569 1570 1571 1571 1573 1569 1569 1571 1571 1572
1572 1572 1572 1571 1571 1571 1571 1571 1571 1571 1570 1570 1570 1570 1570 1571 1574 1569 1567 1566 1566 1566 1566 1565 1564 1564 1564 1565 1565 1568 1568 1568 1569 1569 1569 1570 1570 1569 1568 1567 1567 1568 1569 1569 1570
1572 1572 1571 1571 1571 1570 1570 1570 1570 1570 1570 1570 1570 1570 1570 1571 1570 1569 1568 1567 1566 1567 1566 1565 1565 1565 1566 1566 1566 1567 1568 1568 1569 1569 1569 1569 1568 1569 1564 1565 1566 1567 1567 1568 1569
1571 1571 1570 1570 1570 1570 1570 1569 1569 1569 1570 1570 1570 1569 1570 1571 1569 1569 1568 1567 1567 1567 1567 1566 1566 1566 1566 1566 1568 1568 1568 1569 1568 1569 1569 1568 1567 1568 1561 1561 1563 1564 1565 1566 1566
1569 1569 1569 1569 1569 1569 1569 1568 1568 1568 1569 1569 1569 1569 1569 1570 1569 1568 1568 1567 1567 1567 1567 1567 1567 1567 1567 1567 1568 1568 1569 1569 1567 1568 1568 1568 1567 1564 1560 1560 1560 1562 1563 1564 1564
1568 1568 1567 1568 1568 1568 1567 1567 1568 1568 1568 1568 1569 1569 1568 1567 1568 1568 1568 1568 1567 1567 1567 1567 1567 1567 1568 1568 1569 1570 1573 1578 1567 1567 1568 1569 1571 1558 1556 1557 1558 1560 1561 1561 1562
1565 1566 1566 1566 1567 1567 1566 1566 1566 1567 1567 1568 1569 1568 1567 1566 1566 1567 1567 1567 1567 1567 1567 1566 1567 1568 1569 1572 1579 1579 1581 1576 1571 1566 1568 1569 1567 1557 1557 1557 1557 1557 1558 1559 1560
1562 1563 1564 1565 1565 1566 1565 1565 1566 1566 1567 1567 1567 1570 1566 1564 1565 1566 1566 1567 1567 1567 1567 1567 1567 1570 1574 1579 1590 1581 1579 1576 1577 1568 1568 1570 1566 1555 1554 1554 1553 1554 1556 1556 1557
1559 1560 1561 1564 1564 1564 1566 1566 1569 1568 1565 1563 1563 1562 1561 1563 1564 1565 1565 1566 1567 1567 1569 1568 1573 1577 1573 1572 1573 1573 1577 1577 1571 1568 1568 1568 1567 1554 1548 1548 1550 1551 1553 1553 1553
1555 1557 1559 1561 1562 1563 1564 1565 1566 1567 1563 1560 1560 1561 1561 1562 1563 1563 1565 1567 1566 1568 1568 1573 1576 1569 1570 1571 1572 1573 1576 1577 1572 1569 1571 1568 1563 1553 1549 1547 1546 1547 1549 1549 1550
1552 1554 1557 1558 1561 1563 1563 1565 1566 1565 1563 1556 1555 1557 1559 1561 1561 1561 1564 1564 1565 1568 1569 1575 1569 1567 1569 1572 1573 1575 1576 1577 1578 1574 1571 1572 1564 1557 1548 1546 1545 1545 1544 1543 1543
1548 1550 1553 1557 1562 1560 1562 1564 1565 1565 1572 1556 1552 1554 1557 1558 1559 1559 1561 1564 1565 1568 1570 1570 1568 1568 1570 1572 1574 1576 1573 1575 1576 1581 1580 1573 1583 1559 1553 1549 1544 1543 1542 1541 1541
1544 1547 1550 1554 1556 1558 1561 1562 1565 1566 1589 1551 1551 1550 1551 1556 1557 1558 1559 1562 1564 1566 1569 1571 1569 1570 1572 1571 1571 1576 1573 1575 1576 1582 1582 1575 1583 1564 1555 1548 1544 1541 1540 1540 1540
1541 1543 1547 1551 1554 1557 1560 1562 1566 1578 1582 1551 1547 1549 1552 1553 1556 1558 1559 1561 1563 1564 1566 1568 1567 1568 1568 1570 1571 1573 1576 1580 1584 1588 1590 1574 1582 1569 1557 1547 1544 1541 1540 1540 1539
1539 1539 1544 1547 1552 1555 1558 1562 1577 1583 1547 1550 1548 1547 1550 1554 1556 1557 1559 1562 1568 1577 1575 1570 1569 1568 1568 1571 1572 1574 1583 1596 1589 1594 1590 1577 1582 1562 1545 1543 1542 1541 1540 1540 1540
1536 1538 1539 1544 1549 1553 1557 1563 1574 1549 1546 1539 1543 1548 1553 1552 1555 1557 1561 1566 1562 1564 1579 1579 1579 1569 1568 1569 1572 1575 1580 1593 1575 1596 1587 1580 1581 1553 1541 1541 1541 1540 1540 1539 1539
1534 1535 1534 1540 1546 1549 1553 1567 1553 1542 1533 1537 1542 1550 1553 1550 1552 1555 1561 1561 1555 1557 1568 1577 1570 1568 1568 1569 1571 1574 1580 1576 1589 1596 1594 1581 1563 1544 1540 1540 1540 1540 1540 1540 1539
1531 1533 1527 1536 1541 1547 1550 1539 1536 1528 1528 1531 1540 1541 1553 1552 1553 1556 1560 1545 1546 1545 1548 1557 1572 1569 1568 1568 1569 1570 1572 1581 1588 1584 1576 1581 1574 1559 1543 1541 1539 1539 1538 1539 1539
1531 1531 1524 1527 1536 1544 1539 1532 1527 1523 1524 1529 1533 1541 1541 1545 1547 1552 1548 1539 1538 1544 1547 1554 1560 1573 1570 1571 1571 1575 1577 1579 1583 1589 1590 1587 1567 1537 1534 1533 1535 1535 1536 1537 1536
1526 1528 1519 1521 1530 1529 1526 1524 1520 1519 1521 1523 1524 1527 1533 1538 1543 1545 1542 1538 1532 1534 1547 1548 1562 1575 1564 1563 1563 1564 1565 1570 1584 1581 1597 1600 1568 1528 1528 1528 1530 1532 1534 1534 1534
1519 1519 1516 1518 1516 1520 1518 1517 1518 1516 1516 1518 1520 1519 1522 1531 1536 1536 1535 1530 1531 1532 1537 1542 1559 1574 1568 1566 1563 1563 1562 1565 1574 1584 1589 1594 1559 1528 1528 1528 1528 1529 1531 1531 1531
1513 1513 1512 1511 1504 1505 1510 1513 1513 1511 1511 1511 1512 1515 1519 1523 1525 1532 1532 1531 1531 1531 1532 1533 1549 1551 1559 1546 1551 1559 1556 1560 1562 1581 1578 1572 1546 1529 1527 1526 1524 1525 1526 1527 1528
1500 1493 1492 1497 1497 1500 1503 1500 1505 1506 1506 1507 1511 1509 1514 1523 1526 1528 1530 1532 1532 1531 1532 1534 1544 1548 1543 1539 1543 1543 1547 1555 1557 1553 1553 1539 1547 1526 1521 1520 1518 1519 1521 1522 1523
1480 1482 1483 1486 1490 1496 1495 1488 1492 1499 1500 1502 1504 1505 1507 1514 1513 1524 1525 1528 1527 1532 1533 1535 1541 1542 1539 1539 1543 1543 1541 1546 1546 1546 1546 1540 1531 1513 1510 1514 1514 1512 1514 1514 1515
1465 1471 1471 1474 1480 1488 1476 1487 1488 1493 1492 1493 1497 1501 1506 1503 1504 1507 1509 1509 1510 1520 1531 1536 1542 1548 1549 1541 1542 1547 1527 1535 1535 1531 1525 1537 1502 1505 1507 1507 1505 1506 1507 1508 1510